Time,TemperatureF,DewpointF,PressureIn,WindDirection,WindDirectionDegrees,WindSpeedMPH,WindSpeedGustMPH,Humidity,HourlyPrecipIn,Conditions,Clouds,dailyrainin,SoftwareType,DateUTC
2013-09-07 00:06:00,47.5,47.0,30.13,NE,41,0.0,0.0,97,0.00,,,0.00,weatherlink.com 1.10,2013-09-07 04:06:00,
2013-09-07 00:21:00,47.5,47.0,30.13,NE,41,0.0,0.0,97,0.00,,,0.00,weatherlink.com 1.10,2013-09-07 04:21:00,
2013-09-07 00:36:00,47.3,47.0,30.13,NE,41,0.0,0.0,97,0.00,,,0.00,weatherlink.com 1.10,2013-09-07 04:36:00,
2013-09-07 00:51:00,46.9,46.0,30.13,NE,41,0.0,0.0,97,0.00,,,0.00,weatherlink.com 1.10,2013-09-07 04:51:00,
2013-09-07 01:06:00,46.9,46.0,30.13,NE,41,0.0,1.0,98,0.00,,,0.00,weatherlink.com 1.10,2013-09-07 05:06:00,
2013-09-07 01:21:00,46.7,46.0,30.13,NE,41,0.0,0.0,97,0.00,,,0.00,weatherlink.com 1.10,2013-09-07 05:21:00,
2013-09-07 01:36:00,46.2,46.0,30.13,NE,41,0.0,0.0,98,0.00,,,0.00,weatherlink.com 1.10,2013-09-07 05:36:00,
2013-09-07 01:51:00,46.1,46.0,30.12,NE,41,0.0,0.0,98,0.00,,,0.00,weatherlink.com 1.10,2013-09-07 05:51:00,
2013-09-07 02:06:00,45.9,45.0,30.12,NE,41,0.0,0.0,98,0.00,,,0.00,weatherlink.com 1.10,2013-09-07 06:06:00,
2013-09-07 02:21:00,45.7,45.0,30.11,NE,41,0.0,0.0,98,0.00,,,0.00,weatherlink.com 1.10,2013-09-07 06:21:00,
2013-09-07 02:36:00,45.5,45.0,30.11,NE,41,0.0,0.0,98,0.00,,,0.00,weatherlink.com 1.10,2013-09-07 06:36:00,
2013-09-07 02:51:00,44.9,44.0,30.11,NE,41,0.0,0.0,98,0.00,,,0.00,weatherlink.com 1.10,2013-09-07 06:51:00,
2013-09-07 03:06:00,44.8,44.0,30.11,NE,41,0.0,0.0,98,0.00,,,0.00,weatherlink.com 1.10,2013-09-07 07:06:00,
2013-09-07 03:21:00,44.6,44.0,30.11,NE,41,0.0,0.0,98,0.00,,,0.00,weatherlink.com 1.10,2013-09-07 07:21:00,
2013-09-07 03:36:00,44.2,44.0,30.11,NE,41,0.0,0.0,98,0.00,,,0.00,weatherlink.com 1.10,2013-09-07 07:36:00,
2013-09-07 03:51:00,44.4,44.0,30.11,NE,41,0.0,0.0,98,0.00,,,0.00,weatherlink.com 1.10,2013-09-07 07:51:00,
2013-09-07 04:06:00,44.1,44.0,30.10,NE,41,0.0,0.0,98,0.00,,,0.00,weatherlink.com 1.10,2013-09-07 08:06:00,
2013-09-07 04:21:00,43.7,43.0,30.10,NE,41,0.0,0.0,98,0.00,,,0.00,weatherlink.com 1.10,2013-09-07 08:21:00,
2013-09-07 04:36:00,44.0,44.0,30.10,NE,41,0.0,0.0,99,0.00,,,0.00,weatherlink.com 1.10,2013-09-07 08:36:00,
2013-09-07 04:51:00,43.6,43.0,30.10,NE,41,0.0,0.0,99,0.00,,,0.00,weatherlink.com 1.10,2013-09-07 08:51:00,
2013-09-07 05:06:00,43.6,43.0,30.10,NE,41,0.0,0.0,99,0.00,,,0.00,weatherlink.com 1.10,2013-09-07 09:06:00,
2013-09-07 05:22:00,43.6,43.0,30.10,NE,41,0.0,0.0,99,0.00,,,0.00,weatherlink.com 1.10,2013-09-07 09:22:00,
2013-09-07 05:36:00,43.2,43.0,30.10,NE,41,0.0,0.0,99,0.00,,,0.00,weatherlink.com 1.10,2013-09-07 09:36:00,
2013-09-07 05:51:00,42.5,42.0,30.10,NE,41,0.0,0.0,98,0.00,,,0.00,weatherlink.com 1.10,2013-09-07 09:51:00,
2013-09-07 06:06:00,42.7,43.0,30.10,NE,41,0.0,0.0,99,0.00,,,0.00,weatherlink.com 1.10,2013-09-07 10:06:00,
2013-09-07 06:21:00,42.9,43.0,30.10,NE,41,0.0,0.0,99,0.00,,,0.00,weatherlink.com 1.10,2013-09-07 10:21:00,
2013-09-07 06:36:00,42.8,43.0,30.10,NE,41,0.0,0.0,99,0.00,,,0.00,weatherlink.com 1.10,2013-09-07 10:36:00,
2013-09-07 06:51:00,43.2,43.0,30.11,NE,41,0.0,0.0,99,0.00,,,0.00,weatherlink.com 1.10,2013-09-07 10:51:00,
2013-09-07 07:06:00,43.6,43.0,30.10,NE,41,0.0,1.0,99,0.00,,,0.00,weatherlink.com 1.10,2013-09-07 11:06:00,
2013-09-07 07:21:00,44.1,44.0,30.11,NE,41,0.0,1.0,99,0.00,,,0.00,weatherlink.com 1.10,2013-09-07 11:21:00,
2013-09-07 07:36:00,44.4,44.0,30.11,NNW,343,0.0,1.0,99,0.00,,,0.00,weatherlink.com 1.10,2013-09-07 11:36:00,
2013-09-07 07:51:00,44.8,45.0,30.11,ENE,58,0.0,1.0,99,0.00,,,0.00,weatherlink.com 1.10,2013-09-07 11:51:00,
2013-09-07 08:06:00,45.3,45.0,30.11,ENE,57,0.0,1.0,99,0.00,,,0.00,weatherlink.com 1.10,2013-09-07 12:06:00,
2013-09-07 08:21:00,45.5,45.0,30.11,West,276,0.0,1.0,99,0.00,,,0.00,weatherlink.com 1.10,2013-09-07 12:21:00,
2013-09-07 08:36:00,46.0,46.0,30.11,West,276,0.0,1.0,99,0.00,,,0.00,weatherlink.com 1.10,2013-09-07 12:36:00,
2013-09-07 08:51:00,46.6,46.0,30.11,West,276,0.0,1.0,99,0.00,,,0.00,weatherlink.com 1.10,2013-09-07 12:51:00,
2013-09-07 09:06:00,47.5,47.0,30.10,WNW,297,0.0,1.0,99,0.00,,,0.00,weatherlink.com 1.10,2013-09-07 13:06:00,
2013-09-07 09:21:00,49.1,49.0,30.10,WNW,297,0.0,1.0,99,0.00,,,0.00,weatherlink.com 1.10,2013-09-07 13:21:00,
2013-09-07 09:36:00,51.4,51.0,30.10,WNW,297,0.0,1.0,99,0.00,,,0.00,weatherlink.com 1.10,2013-09-07 13:36:00,
2013-09-07 09:51:00,54.2,53.0,30.09,WSW,243,0.0,2.0,96,0.00,,,0.00,weatherlink.com 1.10,2013-09-07 13:51:00,
2013-09-07 10:06:00,56.6,53.0,30.08,West,274,0.0,2.0,87,0.00,,,0.00,weatherlink.com 1.10,2013-09-07 14:06:00,
2013-09-07 10:21:00,59.1,53.0,30.08,NNE,26,1.0,3.0,79,0.00,,,0.00,weatherlink.com 1.10,2013-09-07 14:21:00,
2013-09-07 10:36:00,61.4,53.0,30.08,North,354,0.0,2.0,74,0.00,,,0.00,weatherlink.com 1.10,2013-09-07 14:36:00,
2013-09-07 10:51:00,63.9,55.0,30.09,SSW,207,0.0,1.0,72,0.00,,,0.00,weatherlink.com 1.10,2013-09-07 14:51:00,
2013-09-07 11:06:00,65.6,56.0,30.08,SE,129,1.0,1.0,71,0.00,,,0.00,weatherlink.com 1.10,2013-09-07 15:06:00,
2013-09-07 11:21:00,66.9,56.0,30.07,West,273,1.0,5.0,68,0.00,,,0.00,weatherlink.com 1.10,2013-09-07 15:21:00,
2013-09-07 11:36:00,67.9,56.0,30.07,West,272,1.0,6.0,65,0.00,,,0.00,weatherlink.com 1.10,2013-09-07 15:36:00,
2013-09-07 11:51:00,68.6,55.0,30.06,SSW,210,1.0,5.0,62,0.00,,,0.00,weatherlink.com 1.10,2013-09-07 15:51:00,
2013-09-07 12:07:00,70.0,53.0,30.06,WNW,282,0.0,5.0,56,0.00,,,0.00,weatherlink.com 1.10,2013-09-07 16:07:00,
2013-09-07 12:22:00,71.0,52.0,30.05,West,262,0.0,6.0,51,0.00,,,0.00,weatherlink.com 1.10,2013-09-07 16:22:00,
2013-09-07 12:37:00,72.0,52.0,30.05,West,275,0.0,7.0,50,0.00,,,0.00,weatherlink.com 1.10,2013-09-07 16:37:00,
2013-09-07 12:52:00,72.5,53.0,30.04,WSW,240,1.0,6.0,51,0.00,,,0.00,weatherlink.com 1.10,2013-09-07 16:52:00,
2013-09-07 13:07:00,73.3,52.0,30.02,WNW,282,0.0,6.0,47,0.00,,,0.00,weatherlink.com 1.10,2013-09-07 17:07:00,
2013-09-07 13:22:00,74.7,51.0,30.02,WNW,285,1.0,6.0,44,0.00,,,0.00,weatherlink.com 1.10,2013-09-07 17:22:00,
2013-09-07 13:37:00,75.1,50.0,30.02,SW,225,1.0,8.0,41,0.00,,,0.00,weatherlink.com 1.10,2013-09-07 17:37:00,
2013-09-07 13:52:00,75.9,53.0,30.01,WSW,243,1.0,6.0,45,0.00,,,0.00,weatherlink.com 1.10,2013-09-07 17:52:00,
2013-09-07 14:07:00,75.4,51.0,30.00,West,265,0.0,6.0,42,0.00,,,0.00,weatherlink.com 1.10,2013-09-07 18:07:00,
2013-09-07 14:22:00,76.2,52.0,30.00,NE,55,0.0,9.0,43,0.00,,,0.00,weatherlink.com 1.10,2013-09-07 18:22:00,
2013-09-07 14:37:00,75.1,50.0,30.00,West,281,2.0,7.0,42,0.00,,,0.00,weatherlink.com 1.10,2013-09-07 18:37:00,
2013-09-07 14:52:00,75.8,47.0,29.99,SW,221,9.0,12.0,36,0.00,,,0.00,weatherlink.com 1.10,2013-09-07 18:52:00,
2013-09-07 15:07:00,77.0,51.0,29.99,West,259,0.0,7.0,40,0.00,,,0.00,weatherlink.com 1.10,2013-09-07 19:07:00,
2013-09-07 15:22:00,76.7,51.0,29.98,WSW,238,6.0,9.0,40,0.00,,,0.00,weatherlink.com 1.10,2013-09-07 19:22:00,
2013-09-07 15:37:00,76.5,49.0,29.98,SW,219,5.0,12.0,38,0.00,,,0.00,weatherlink.com 1.10,2013-09-07 19:37:00,
2013-09-07 15:52:00,76.8,49.0,29.98,WSW,255,3.0,9.0,38,0.00,,,0.00,weatherlink.com 1.10,2013-09-07 19:52:00,
2013-09-07 16:07:00,76.2,50.0,29.97,NNW,346,1.0,10.0,40,0.00,,,0.00,weatherlink.com 1.10,2013-09-07 20:07:00,
2013-09-07 16:22:00,77.2,54.0,29.97,West,276,0.0,9.0,44,0.00,,,0.00,weatherlink.com 1.10,2013-09-07 20:22:00,
2013-09-07 16:37:00,76.6,52.0,29.96,West,262,6.0,10.0,42,0.00,,,0.00,weatherlink.com 1.10,2013-09-07 20:37:00,
2013-09-07 16:52:00,76.8,51.0,29.96,WSW,238,9.0,12.0,41,0.00,,,0.00,weatherlink.com 1.10,2013-09-07 20:52:00,
2013-09-07 17:07:00,77.1,50.0,29.96,WSW,257,5.0,10.0,38,0.00,,,0.00,weatherlink.com 1.10,2013-09-07 21:07:00,
2013-09-07 17:22:00,76.6,52.0,29.96,West,281,1.0,8.0,42,0.00,,,0.00,weatherlink.com 1.10,2013-09-07 21:22:00,
2013-09-07 17:37:00,76.0,52.0,29.96,WNW,292,0.0,5.0,44,0.00,,,0.00,weatherlink.com 1.10,2013-09-07 21:37:00,
2013-09-07 17:52:00,74.9,53.0,29.95,WSW,250,1.0,3.0,47,0.00,,,0.00,weatherlink.com 1.10,2013-09-07 21:52:00,
2013-09-07 18:07:00,73.9,56.0,29.94,West,264,0.0,2.0,54,0.00,,,0.00,weatherlink.com 1.10,2013-09-07 22:07:00,
2013-09-07 18:22:00,72.4,57.0,29.94,ESE,113,0.0,1.0,59,0.00,,,0.00,weatherlink.com 1.10,2013-09-07 22:22:00,
2013-09-07 18:37:00,72.2,57.0,29.95,ESE,113,0.0,1.0,60,0.00,,,0.00,weatherlink.com 1.10,2013-09-07 22:37:00,
2013-09-07 18:52:00,72.2,57.0,29.94,WSW,258,0.0,2.0,60,0.00,,,0.00,weatherlink.com 1.10,2013-09-07 22:52:00,
2013-09-07 19:07:00,70.9,57.0,29.94,SE,134,0.0,1.0,61,0.00,,,0.00,weatherlink.com 1.10,2013-09-07 23:07:00,
2013-09-07 19:22:00,68.9,58.0,29.94,SE,134,0.0,1.0,69,0.00,,,0.00,weatherlink.com 1.10,2013-09-07 23:22:00,
2013-09-07 19:38:00,66.5,58.0,29.94,SE,129,0.0,1.0,74,0.00,,,0.00,weatherlink.com 1.10,2013-09-07 23:38:00,
2013-09-07 19:53:00,64.6,57.0,29.94,SE,129,0.0,1.0,77,0.00,,,0.00,weatherlink.com 1.10,2013-09-07 23:53:00,
2013-09-07 20:08:00,63.5,58.0,29.94,SE,129,0.0,0.0,81,0.00,,,0.00,weatherlink.com 1.10,2013-09-08 00:08:00,
2013-09-07 20:23:00,62.6,57.0,29.95,SE,129,0.0,0.0,83,0.00,,,0.00,weatherlink.com 1.10,2013-09-08 00:23:00,
2013-09-07 20:38:00,62.2,58.0,29.95,SE,129,0.0,0.0,85,0.00,,,0.00,weatherlink.com 1.10,2013-09-08 00:38:00,
2013-09-07 20:53:00,61.9,58.0,29.95,SE,129,0.0,0.0,86,0.00,,,0.00,weatherlink.com 1.10,2013-09-08 00:53:00,
2013-09-07 21:08:00,61.6,58.0,29.95,SE,129,0.0,1.0,87,0.00,,,0.00,weatherlink.com 1.10,2013-09-08 01:08:00,
2013-09-07 21:23:00,61.3,58.0,29.95,SE,129,0.0,0.0,88,0.00,,,0.00,weatherlink.com 1.10,2013-09-08 01:23:00,
2013-09-07 21:38:00,61.2,58.0,29.95,SE,129,0.0,0.0,89,0.00,,,0.00,weatherlink.com 1.10,2013-09-08 01:38:00,
2013-09-07 21:53:00,61.1,58.0,29.95,SE,129,0.0,0.0,89,0.00,,,0.00,weatherlink.com 1.10,2013-09-08 01:53:00,
2013-09-07 22:08:00,61.1,58.0,29.95,SE,129,0.0,0.0,89,0.00,,,0.00,weatherlink.com 1.10,2013-09-08 02:08:00,
2013-09-07 22:23:00,60.9,58.0,29.95,SE,129,0.0,0.0,90,0.00,,,0.00,weatherlink.com 1.10,2013-09-08 02:23:00,
2013-09-07 22:38:00,60.8,58.0,29.95,SE,129,0.0,0.0,90,0.00,,,0.00,weatherlink.com 1.10,2013-09-08 02:38:00,
2013-09-07 22:53:00,60.9,58.0,29.95,SE,129,0.0,0.0,91,0.00,,,0.00,weatherlink.com 1.10,2013-09-08 02:53:00,
2013-09-07 23:08:00,61.0,59.0,29.94,SE,129,0.0,0.0,92,0.00,,,0.00,weatherlink.com 1.10,2013-09-08 03:08:00,
2013-09-07 23:23:00,61.1,59.0,29.94,SE,129,0.0,0.0,92,0.00,,,0.00,weatherlink.com 1.10,2013-09-08 03:23:00,
2013-09-07 23:38:00,61.2,59.0,29.93,SE,129,0.0,0.0,92,0.00,,,0.00,weatherlink.com 1.10,2013-09-08 03:38:00,
2013-09-07 23:53:00,61.2,59.0,29.93,SE,129,0.0,0.0,92,0.00,,,0.00,weatherlink.com 1.10,2013-09-08 03:53:00,